Notices

What's New in latest Release from April 7th, 2021:

- Updated Glossary, including Speed of Maximum Gust, and Total Hourly Precipitation

- Updated national and regional climate services offices contacts and prices information

- Addition of station inventory lists for 1981-2010, 1971-2000, and 1961-1990 Normals.

If you haven't already, please take our survey and provide feedback about our website: https://eccc.sondage-survey.ca/f/LanguageSelection.aspx?s=442ca660-fcf1-47c0-95a9-59707d6fd709

Hourly Data Report for April 19, 2021

KENORA A
ONTARIO
Current Station Operator: NAVCAN

49°47'18.000" N
94°21'47.000" W
409.70 m
6034076
71850
YQK

Download Data

Hourly Data (April 2021)
Hourly Data Report for April 19, 2021
TIME
LST
Temp Definition
°C
Dew Point Definition
°C
Rel Hum Definition
%
Precip. Amount Definition
mm

Wind Dir Definition
10's deg

Wind Spd Definition
km/h
Visibility Definition
km
Stn Press Definition
kPa
Hmdx Definition


Wind Chill Definition


Weather Definition


00:00 -3.3 -9.8 61   36 20 24.1 96.86   -9 Cloudy
01:00 -3.6 -10.1 61   1 15 24.1 96.85   -9 LegendNANA
02:00 -3.8 -10.2 62   35 14 24.1 96.83   -9 LegendNANA
03:00 -4.8 -11.8 58   36 16 24.1 96.86   -11 Mostly Cloudy
04:00 -5.8 -12.7 59   36 19 24.1 96.90   -12 LegendNANA
05:00 -6.7 -12.9 61   36 14 24.1 96.93   -12 LegendNANA
06:00 -6.8 -12.7 63   35 16 32.2 96.99   -13 Mainly Clear
07:00 -5.9 -13.2 56   36 13 32.2 97.01   -11 LegendNANA
08:00 -4.9 -14.1 49   36 17 32.2 97.00   -11 LegendNANA
09:00 -3.9 -13.8 46   1 18 32.2 96.98   -10 Mainly Clear
10:00 -3.3 -14.4 43   1 22 32.2 96.96   -10 LegendNANA
11:00 -2.4 -13.2 44   34 18 32.2 96.95   -8 LegendNANA
12:00 -0.9 -12.1 43   1 18 32.2 96.92   -6 Mainly Clear
13:00 -0.5 -12.7 40   34 23 32.2 96.92   -6 LegendNANA
14:00 0.5 -11.5 40   33 22 32.2 96.91     LegendNANA
15:00 0.6 -12.5 37   33 25 32.2 96.91     Mostly Cloudy
16:00 0.5 -11.7 40   31 26 32.2 96.92     LegendNANA
17:00 -0.2 -11.1 44   35 12 32.2 96.94   -4 LegendNANA
18:00 -0.7 -12.0 42   33 15 32.2 96.95   -5 Mostly Cloudy
19:00 -1.4 -12.1 44   34 16 32.2 96.96   -6 LegendNANA
20:00 -1.8 -11.8 47   35 13 32.2 97.01   -6 LegendNANA
21:00 -2.2 -12.2 46   35 16 32.2 97.04   -7 Mostly Cloudy
22:00 -3.0 -12.1 50   34 11 32.2 97.05   -7 LegendNANA
23:00 -3.4 -11.9 52   34 10 32.2 97.06   -7 LegendNANA

Notes on Data Quality.

Legend

  • E = Estimated
  • M = Missing
  • NA = Not Available*
  • [empty] = Indicates an unobserved value
Date modified: